DELTA 1 DEB, 13529

Orbit data source: Space-Track

DELTA 1 DEB, 13529 is space debris in LEO originally from a launch on Thu, 29 Jul 1976 UTC launched from the Air Force Western Test Range (AFWTR). Debris objects in space refer to the collection of defunct objects orbiting the Earth. Examples of debris include non-operational satellites, rocket bodies, and fragments generated from explosions, collisions, or faulty payload assembly.

Loading next visibility...
Identifier
13529, 1976-077EB
Orbit
LEO
Country
Flag of USUS
Related business
Manufacturer
Unknown
Mission
Spacecraft
Bus & Motor
Unknown
Mass
Unknown
Launch date (UTC)
1976-07-29 (50 years ago)
Launch vehicle
Unknown
Launch site
Air Force Western Test Range (AFWTR)
Object type
Payload
Rocket body
Debris
Shape & HBR
Unknown shape, 0.1 m
Radar Cross Section
Small (<0.1 m²)

Expand to show TLE details & history
Last TLE update: 1 day ago

TLE from 1 day ago
0 DELTA 1 DEB
1 13529U 76077EB  26120.14144589 -.00000007  00000-0  40407-3 0  9990
2 13529 101.8556 190.6742 0381944  82.2791 310.1166 11.66138155936288
Epoch: 2026-04-30T03:23Z
TLE epoch observation values (Epoch: 2026-04-30T03:23:40.924Z)
Latitude
28.31313°
Longitude
-84.80083°
Altitude
1,644.316 km
Speed
7.136 km/s
True Right ascension
12h 16m 50s
True Declination
28° 11' 08"
Sunlit
Object was in daylight at epoch
Visualization orbit readout
Latitude
Unknown
Longitude
Unknown
Altitude
Unknown
Speed
Unknown
Apparent Right ascension
Unknown
Apparent Declination
Unknown
Sunlit
N/A
Visualization observer readout
Local Sidereal Time
16:52:25
Azimuth
Unknown
Elevation
Unknown
Doppler factor
Unknown
Orbital elements
Apogee altitude
2,147.433 km
Perigee altitude
1,520.134 km
Semi-major axis
8,211.92 km
Eccentricity
0.03819
Inclination
101.8556°
RAAN
190.6742°
Arg. of periapsis
82.2791°
True anomaly
306.66555°
Mean anomaly
310.1166°
Eccentric anomaly
308.40162°
Mean motion
2.91659 °/min
Orbital period
123.43 mins
BSTAR
0.00040407
Loading maneuver chart data...
Computing Atmospheric mass density...
Loading historical data...
Loading historical data...
Loading historical data...
Loading historical data...
Loading historical data...
Loading historical data...
Loading historical data...

Documentation

Showing up to 5 results
|